Location: Brienzwiler
(46.7508°N, 8.1014°E)
Time: 17:12:57
(UTC+00:00)

NOSS 3-3 (A) - Pass Details

Date: 05 July 2020
Orbit: 825 x 1387 km, 63.4° (Epoch: 07 August)

Event Time Altitude Azimuth Distance (km) Brightness Sun altitude
Rises 20:26:04 0° 188° (S) 3,388 6.5 -8.8°
Reaches altitude 10° 20:28:36 10° 179° (S) 2,495 5.7 -9.1°
Maximum altitude 20:33:46 35° 115° (ESE) 1,431 4.5 -9.7°
Drops below altitude 10° 20:39:30 10° 52° (NE) 2,775 6.4 -10.4°
Sets 20:42:27 0° 44° (NE) 3,820 7.2 -10.7°
